[[{"header":{"parameterUnit":"m.s-1","parameterCategory":1,"la1":30.2991,"la2":30.254,"lo1":-89.0895,"lo2":-89.0444,"dy":0.0017,"dx":0.0017,"nx":28,"ny":28,"refTime":"2025-08-28T21:00:00:Z","depth":0,"parameterNumber":2,"parameterNumberName":"U-component_of_WINDS"},"data":[0,0,0,0,0,0,0,0,0,0,0,0,0,0,0,0,0,0,0,0,0,0,0,0,0,0,0,0,0,0,0,0,0,0,0,0,0,0,0,0,0,0,0,0,0,0,0,0,0,0,0,0,0,0,0,0,0,0,-1.2457,-1.2458,0,-1.2531,-1.2532,-1.2532,-1.2582,-1.2582,-1.2583,-1.2583,-1.2655,-1.2657,-1.2658,0,0,0,0,0,0,0,0,0,0,0,0,0,-1.2356,-1.2357,-1.2457,-1.2458,-1.2459,-1.2531,-1.2532,-1.2533,-1.2582,-1.2582,-1.2583,-1.2583,-1.2655,-1.2657,-1.2659,0,0,0,0,0,0,0,0,0,0,0,0,0,-1.2411,-1.2358,-1.2457,-1.2492,-1.2496,-1.253,-1.2532,-1.2533,-1.2582,-1.2582,-1.2583,-1.2583,-1.2654,-1.2656,-1.2659,-1.2663,0,0,-1.2666,-1.2667,0,0,0,0,0,0,0,0,-1.2408,-1.2415,-1.2486,-1.249,-1.2494,-1.2548,-1.2523,-1.2576,-1.2582,-1.2549,-1.2583,-1.2584,-1.2619,-1.2624,-1.2637,-1.2666,-1.2669,-1.2666,-1.2668,-1.2669,-1.2669,0,0,0,0,0,0,0,-1.2404,-1.2412,-1.2486,-1.2487,-1.2492,-1.2503,-1.2512,-1.2533,-1.258,-1.2552,-1.2556,-1.2564,-1.2621,-1.2634,-1.2639,-1.2671,-1.2666,-1.2668,-1.267,-1.2671,-1.2707,-1.2707,0,0,0,0,0,0,-1.2395,-1.2409,-1.2484,-1.2488,-1.2452,-1.2505,-1.2514,-1.253,-1.258,-1.2588,-1.2563,-1.2566,-1.263,-1.2636,-1.2642,-1.265,-1.2669,-1.2671,-1.2672,-1.2708,-1.2707,-1.2707,0,0,0,0,0,0,-1.2393,-1.2402,-1.2481,-1.245,-1.2461,-1.2506,-1.2523,-1.2531,-1.2544,-1.2589,-1.2597,-1.2568,-1.2631,-1.2638,-1.2658,-1.2653,-1.2672,-1.2674,-1.2708,-1.2708,-1.2707,-1.2666,0,0,0,0,0,0,-1.239,-1.24,-1.2403,-1.2449,-1.2462,-1.2496,-1.2523,-1.2532,-1.2549,-1.2553,-1.2596,-1.2603,-1.2632,-1.2654,-1.266,-1.2657,-1.2676,-1.2709,-1.2708,-1.2707,-1.2668,-1.2664,-1.2661,0,0,0,0,0,-1.2386,-1.2388,-1.2403,-1.2412,-1.2466,-1.2496,-1.2503,-1.2537,-1.2548,-1.2551,-1.2579,-1.2602,-1.2653,-1.2655,-1.2663,-1.266,-1.2709,-1.2708,-1.2707,-1.267,-1.2665,-1.2661,0,0,0,0,0,0,-1.2339,-1.2395,-1.2412,-1.2429,-1.2457,-1.2504,-1.2508,-1.253,-1.2555,-1.2558,-1.2598,-1.2607,-1.2622,-1.2643,-1.2645,-1.2667,-1.2684,-1.2684,-1.2653,-1.2648,-1.2645,-1.2639,-1.2678,0,0,0,0,0,-1.2331,-1.2351,-1.2398,-1.2408,-1.2422,-1.2463,-1.2477,-1.25,-1.2531,-1.2543,-1.2573,-1.2601,-1.2623,-1.2637,-1.266,-1.2671,-1.2681,-1.2673,-1.267,-1.2666,-1.2666,-1.2674,-1.267,-1.2703,-1.2703,-1.2703,0,0,-1.2313,-1.2346,-1.2356,-1.24,-1.2425,-1.2444,-1.2472,-1.2491,-1.2506,-1.2545,-1.2566,-1.2589,-1.2623,-1.2638,-1.2646,-1.2656,-1.2659,-1.2665,-1.2662,-1.2664,-1.2672,-1.2669,-1.2666,-1.2703,-1.2703,-1.2703,0,0,-1.2292,-1.2319,-1.2331,-1.2355,-1.2393,-1.242,-1.2423,-1.2466,-1.2483,-1.2505,-1.2535,-1.2552,-1.259,-1.2613,-1.263,-1.2617,-1.2638,-1.2623,-1.2604,-1.2611,-1.2608,-1.2606,-1.2601,-1.2599,-1.2623,-1.2623,-1.2623,0,-1.2265,-1.2296,-1.2333,-1.2351,-1.2369,-1.2407,-1.2419,-1.2441,-1.2483,-1.2494,-1.2505,-1.2553,-1.2579,-1.26,-1.2597,-1.2609,-1.2613,-1.2618,-1.2606,-1.2604,-1.2603,-1.2598,-1.2597,-1.2621,-1.2621,-1.2621,-1.2621,0,-1.2261,-1.2282,-1.2287,-1.2329,-1.2347,-1.2362,-1.2401,-1.2415,-1.2437,-1.2462,-1.2484,-1.2516,-1.2546,-1.2553,-1.2574,-1.2577,-1.2582,-1.2598,-1.2616,-1.2597,-1.2594,-1.2592,-1.2618,-1.2619,-1.2619,-1.262,0,0,-1.2211,-1.2274,-1.2275,-1.2295,-1.2339,-1.2356,-1.2372,-1.2402,-1.2414,-1.2442,-1.2456,-1.2487,-1.2503,-1.2522,-1.2546,-1.2552,-1.254,-1.2568,-1.2569,-1.2561,-1.2545,-1.2532,-1.2529,-1.2554,-1.2554,-1.2554,-1.2542,0,-1.2196,-1.2228,-1.2262,-1.2282,-1.2301,-1.2338,-1.2352,-1.238,-1.2405,-1.2424,-1.2451,-1.2473,-1.2492,-1.2504,-1.2511,-1.2539,-1.2537,-1.2541,-1.2567,-1.2567,-1.2557,-1.2528,-1.2514,-1.2501,-1.2541,-1.2541,-1.254,0,-1.2183,-1.2211,-1.2232,-1.2275,-1.2285,-1.2297,-1.2328,-1.2346,-1.2379,-1.2396,-1.2417,-1.2444,-1.2461,-1.2477,-1.2502,-1.2504,-1.2517,-1.2532,-1.2532,-1.2536,-1.2552,-1.253,-1.2497,-1.2495,-1.2539,-1.2539,-1.2539,0,-1.2144,-1.2186,-1.2205,-1.222,-1.2271,-1.2279,-1.23,-1.2333,-1.235,-1.2376,-1.2387,-1.2415,-1.243,-1.2451,-1.2484,-1.2492,-1.2505,-1.2523,-1.2519,-1.2518,-1.252,-1.2519,-1.2488,-1.2528,-1.2528,-1.2528,-1.2528,0,-1.2123,-1.2135,-1.2188,-1.2199,-1.2214,-1.2253,-1.2265,-1.2289,-1.2319,-1.2335,-1.2368,-1.2382,-1.2425,-1.2444,-1.2469,-1.2486,-1.2492,-1.2506,-1.2513,-1.2503,-1.2501,-1.2512,-1.2513,-1.2528,-1.2528,-1.2528,-1.2528,0,-1.2082,-1.2118,-1.2141,-1.2188,-1.2199,-1.2208,-1.2247,-1.2259,-1.2286,-1.2306,-1.2313,-1.2354,-1.2378,-1.2413,-1.2447,-1.2464,-1.2477,-1.2488,-1.2466,-1.247,-1.2463,-1.2463,-1.2438,-1.2436,-1.2477,-1.2477,-1.2476,0,-1.2066,-1.2076,-1.2124,-1.2138,-1.2159,-1.218,-1.2197,-1.2236,-1.2252,-1.229,-1.2297,-1.2324,-1.2348,-1.2384,-1.2417,-1.2443,-1.2455,-1.2444,-1.2459,-1.2449,-1.2454,-1.2453,-1.2454,-1.244,-1.244,-1.2439,-1.2439,0,-1.2034,-1.2052,-1.2076,-1.2106,-1.2126,-1.2152,-1.2178,-1.2187,-1.2232,-1.2248,-1.2274,-1.2292,-1.2328,-1.2354,-1.2385,-1.2406,-1.2429,-1.2434,-1.2434,-1.2424,-1.2411,-1.2418,-1.2456,-1.2434,-1.2435,-1.2435,-1.2435,-1.2435,-1.2005,-1.2016,-1.2052,-1.2077,-1.2102,-1.2126,-1.214,-1.2169,-1.2191,-1.2224,-1.2245,-1.2269,-1.2302,-1.2346,-1.2366,-1.2385,-1.2395,-1.2395,-1.2395,-1.2395,-1.2391,-1.2409,-1.2391,-1.2391,-1.2391,-1.2391,-1.2391,0,-1.1975,-1.2,-1.2023,-1.206,-1.208,-1.2102,-1.2133,-1.2148,-1.2169,-1.2198,-1.2221,-1.225,-1.2276,-1.2311,-1.2338,-1.2347,-1.2358,-1.2353,-1.2352,-1.2357,-1.2381,-1.2378,-1.2343,-1.2343,-1.2343,-1.2343,-1.2343,-1.2343,-1.1961,-1.1981,-1.2002,-1.2034,-1.2059,-1.2084,-1.2099,-1.2122,-1.2145,-1.2177,-1.2199,-1.2222,-1.2253,-1.2283,-1.2307,-1.2317,-1.2325,-1.2316,-1.2329,-1.2351,-1.2355,-1.2359,-1.2356,-1.2318,-1.2318,-1.2303,-1.2303,-1.2303]},{"header":{"parameterUnit":"m.s-1","parameterCategory":1,"la1":30.2991,"la2":30.254,"lo1":-89.0895,"lo2":-89.0444,"dy":0.0017,"dx":0.0017,"nx":28,"ny":28,"refTime":"2025-08-28T21:00:00:Z","depth":0,"parameterNumber":3,"parameterNumberName":"V-component_of_WINDS"},"data":[0,0,0,0,0,0,0,0,0,0,0,0,0,0,0,0,0,0,0,0,0,0,0,0,0,0,0,0,0,0,0,0,0,0,0,0,0,0,0,0,0,0,0,0,0,0,0,0,0,0,0,0,0,0,0,0,0,0,1.8725,1.8723,0,1.8519,1.8517,1.8514,1.8336,1.8334,1.8332,1.8331,1.8114,1.811,1.8106,0,0,0,0,0,0,0,0,0,0,0,0,0,1.896,1.8957,1.8725,1.8723,1.872,1.8519,1.8516,1.8514,1.8337,1.8334,1.8332,1.833,1.8115,1.8111,1.8106,0,0,0,0,0,0,0,0,0,0,0,0,0,1.8817,1.8956,1.8726,1.8608,1.8595,1.852,1.8516,1.8513,1.8337,1.8334,1.8331,1.8328,1.8117,1.8111,1.8105,1.8129,0,0,1.8088,1.8085,0,0,0,0,0,0,0,0,1.8825,1.8808,1.8628,1.8616,1.8602,1.845,1.852,1.8384,1.8338,1.8435,1.833,1.8327,1.8228,1.8213,1.8181,1.8119,1.8109,1.8087,1.8083,1.8081,1.8079,0,0,0,0,0,0,0,1.8835,1.8816,1.8643,1.8625,1.8609,1.8563,1.854,1.8493,1.8351,1.8426,1.8413,1.8391,1.822,1.8187,1.8174,1.8106,1.8087,1.8082,1.8078,1.8076,1.805,1.8053,0,0,0,0,0,0,1.8864,1.8825,1.865,1.8637,1.8708,1.8562,1.8535,1.8502,1.8351,1.8325,1.8394,1.8384,1.8198,1.8181,1.8166,1.8181,1.8081,1.8075,1.8072,1.8048,1.8051,1.8054,0,0,0,0,0,0,1.887,1.885,1.8658,1.8728,1.87,1.8561,1.8525,1.8499,1.8465,1.8326,1.8299,1.8386,1.8195,1.8174,1.8139,1.8171,1.8073,1.8067,1.8044,1.8049,1.8053,1.8214,0,0,0,0,0,0,1.8877,1.8853,1.8862,1.8729,1.8697,1.8637,1.8527,1.8497,1.8456,1.8441,1.8312,1.8287,1.8191,1.8149,1.8133,1.8162,1.8063,1.8041,1.8046,1.8051,1.8206,1.8224,1.8239,0,0,0,0,0,1.8886,1.8915,1.8864,1.8843,1.8705,1.864,1.8621,1.8511,1.846,1.8466,1.8377,1.8292,1.8171,1.8147,1.8128,1.8155,1.8038,1.8045,1.8051,1.8198,1.822,1.8239,0,0,0,0,0,0,1.9054,1.8896,1.8836,1.8824,1.8747,1.861,1.8615,1.8538,1.8473,1.8461,1.8325,1.8298,1.8277,1.8212,1.8188,1.8168,1.8093,1.8096,1.8211,1.8231,1.8248,1.8263,1.8058,0,0,0,0,0,1.909,1.9052,1.8914,1.8916,1.8881,1.8755,1.8722,1.8645,1.8558,1.8524,1.8432,1.8351,1.8293,1.8259,1.8199,1.8196,1.8164,1.8205,1.8222,1.8236,1.824,1.8231,1.8247,1.8075,1.8075,1.8075,0,0,1.9163,1.9071,1.9055,1.8948,1.8879,1.884,1.8729,1.8693,1.8662,1.8518,1.8479,1.841,1.8309,1.829,1.8276,1.8235,1.828,1.8244,1.8257,1.8252,1.8239,1.8256,1.827,1.8079,1.8079,1.8078,0,0,1.9275,1.9204,1.9196,1.913,1.9027,1.8943,1.8942,1.8817,1.8765,1.8724,1.8615,1.8576,1.8482,1.8414,1.8368,1.8455,1.8373,1.8439,1.8526,1.8519,1.8533,1.8544,1.8573,1.8585,1.8443,1.8444,1.8444,0,1.9378,1.9317,1.9202,1.9172,1.9127,1.8997,1.8987,1.8928,1.8811,1.8782,1.8738,1.8616,1.8539,1.8502,1.8523,1.849,1.8482,1.8452,1.8541,1.8551,1.8559,1.8586,1.8597,1.8452,1.8451,1.845,1.845,0,1.9448,1.9407,1.9413,1.9305,1.9261,1.9242,1.9121,1.909,1.9016,1.8937,1.8896,1.88,1.8718,1.8703,1.863,1.8654,1.8631,1.8566,1.8487,1.8586,1.8608,1.8618,1.8465,1.8461,1.8459,1.8457,0,0,1.9659,1.9488,1.9492,1.944,1.9318,1.9283,1.9257,1.9178,1.9153,1.9077,1.905,1.8974,1.8912,1.8859,1.8777,1.8772,1.8845,1.8706,1.8701,1.8734,1.8863,1.8912,1.8925,1.8791,1.8792,1.8793,1.8871,0,1.975,1.9698,1.9593,1.9573,1.9532,1.9408,1.9385,1.9307,1.9232,1.9185,1.9101,1.9048,1.8972,1.8939,1.8928,1.8839,1.8868,1.8832,1.8762,1.8761,1.8789,1.8937,1.8988,1.9066,1.8879,1.888,1.8881,0,1.9849,1.9782,1.9758,1.9637,1.9616,1.9598,1.9516,1.9474,1.9382,1.9327,1.9269,1.918,1.9143,1.9073,1.902,1.8997,1.8962,1.8914,1.8914,1.8902,1.8826,1.8927,1.9088,1.91,1.8894,1.8893,1.8892,0,2.0003,1.9907,1.9879,1.9839,1.9698,1.9688,1.9628,1.9533,1.9492,1.942,1.9392,1.9317,1.9275,1.9218,1.911,1.9069,1.9068,1.8989,1.902,1.9023,1.9024,1.9025,1.918,1.9006,1.9005,1.9005,1.9005,0,2.0115,2.0105,1.9946,1.993,1.9914,1.9793,1.978,1.9709,1.9625,1.9591,1.9479,1.9449,1.9309,1.9261,1.9177,1.9144,1.9127,1.908,1.9057,1.9089,1.9095,1.9063,1.9054,1.9008,1.9007,1.9007,1.9006,0,2.0284,2.0178,2.0139,2.0009,1.9976,1.997,1.9857,1.9835,1.9754,1.9712,1.9695,1.9567,1.9505,1.9392,1.9299,1.9242,1.9226,1.9188,1.9258,1.9244,1.928,1.9278,1.9419,1.9431,1.9252,1.9254,1.9255,0,2.0361,2.035,2.0219,2.0189,2.0134,2.0087,2.0044,1.9925,1.9885,1.9779,1.9769,1.9699,1.9637,1.9544,1.9441,1.9369,1.9327,1.9381,1.9315,1.9347,1.9325,1.9326,1.9323,1.9396,1.9398,1.9401,1.9402,0,2.0509,2.0456,2.0401,2.0327,2.028,2.0216,2.0145,2.0126,1.999,1.995,1.9887,1.9839,1.9744,1.9675,1.9588,1.9524,1.944,1.9424,1.9427,1.9458,1.9499,1.9475,1.9297,1.9421,1.9419,1.9418,1.9417,1.9416,2.0632,2.0616,2.0521,2.0463,2.0397,2.0334,2.0307,2.0222,2.0168,2.0082,2.0015,1.9956,1.9862,1.9737,1.9678,1.9629,1.9589,1.9594,1.9595,1.9597,1.9609,1.9509,1.9613,1.9612,1.9611,1.9611,1.961,0,2.0772,2.0705,2.0652,2.0558,2.0511,2.0439,2.0357,2.0322,2.0273,2.0193,2.0134,2.0061,1.9994,1.9886,1.981,1.9791,1.9751,1.9775,1.9774,1.976,1.965,1.9654,1.9809,1.9809,1.9809,1.9809,1.9809,1.9809,2.0839,2.0808,2.0745,2.068,2.0612,2.0555,2.0515,2.0455,2.039,2.0314,2.0258,2.0189,2.0098,2.0014,1.9948,1.9918,1.9894,1.9931,1.9888,1.9787,1.9768,1.9751,1.9754,1.9927,1.9927,2.0002,2.0003,2.0003]}]]